Startpagina
METAR-TAF:

METAR-TAF

Vliegvelden :

Lowell, Idaho, Verenigde Staten

breedte: 46-08-39N, lengte: 115-35-47W, hoogte: 480 m

Actueel weer

Dit bericht is 1 uur en het 1 minuten geleden gemaakt, om 18:52 UTC
Weinig wind
Temperatuur 6°C
Vochtigheid 100%
Druk 1023 hPa

METAR: KP69 161852Z AUTO 00000KT 06/06 A3020 RMK AO1 SLP239 T00610056

Tijdstip: 11:53 (19:53 UTC)


TAF: ontbreekt

Waarnemingen en weersverwachtingen van meer dan 4000 vliegvelden (METAR en TAF).

De beschikbare stations zijn de gele en rode punten op de kaart.

Ga met uw muis naar het station om de naam te zien.

Klik dan om waarnemingen en weersverwachtingen te zien.

kaart wijzigen: klik op de groene knoppen met een zwart kruis om in te zoomen, op de groene knop met een streepje om uit te zoomen of op de groene pijlen voor aangrenzende kaarten.


METAR-TAF: